Regional Weather Roundup
Issued by NWS

Home | Current Version | Previous Version | Text Only | Print | Product List | Glossary Off
Versions: 1 2 3 4 5 6 7 8 9 10 11 12 13 14 15 16 17 18 19 20 21 22 23 24 25 26 27 28 29 30 31 32 33 34 35 36 37 38 39 40 41 42 43 44 45 46 47 48 49 50

000
ASUS43 KBIS 060310
RWRND

NORTH DAKOTA REGIONAL WEATHER ROUNDUP
NATIONAL WEATHER SERVICE BISMARCK ND
900 PM CST THU MAR 05 2015

NOTE: "FAIR" INDICATES FEW OR NO CLOUDS BELOW 12,000 FEET WITH NO
SIGNIFICANT WEATHER AND/OR OBSTRUCTIONS TO VISIBILITY.


NDZ001>003-009>011-017-060400-
NORTHWEST NORTH DAKOTA

CITY           SKY/WX    TMP DP  RH WIND       PRES   REMARKS
WILLISTON      CLOUDY    34  21  59 W8        30.02S
MINOT          PTCLDY    27  13  55 SW17      29.96S WCI  14
MINOT AFB      PTCLDY    24  16  73 W14       29.95F WCI  11
$$

NDZ018>021-031>035-040>046-060400-
SOUTHWEST NORTH DAKOTA

CITY           SKY/WX    TMP DP  RH WIND       PRES   REMARKS
BISMARCK       CLEAR     25  13  60 SW3       30.06S
DICKINSON      PTCLDY    23  11  60 W7        30.02F WCI  15
GARRISON         N/A     24  13  62 W9        30.00F WCI  14
HETTINGER ARPT CLEAR     23   9  55 W6        30.08S WCI  16
$$

NDZ004>008-012>016-024-026-027-054-060400-
NORTHEAST NORTH DAKOTA

CITY           SKY/WX    TMP DP  RH WIND       PRES   REMARKS
GRAND FORKS    PTCLDY    17   9  70 S15       30.04F WCI   2
GRND FRKS AFB  CLOUDY    20  10  65 SW15      30.02F WCI   6
DEVILS LAKE    PTCLDY    19  10  68 SW13      29.97F WCI   7
$$

NDZ022-023-025-028>030-036>039-047>053-060400-
SOUTHEAST NORTH DAKOTA

CITY           SKY/WX    TMP DP  RH WIND       PRES   REMARKS
FARGO          CLEAR     17   7  64 S16       30.12F WCI   2
JAMESTOWN      CLEAR     18  10  71 S13       30.04F WCI   5
$$




USA.gov is the U.S. government's official web portal to all federal, state and local government web resources and services.